Location: Wien
(48.2082°N, 16.3738°E)
Time: 11:31:05
(UTC+02:00)

Tiros 1 despin weight - Pass Details

Date: 19 September 2024
Orbit: 573 x 615 km, 48.2° (Epoch: 06 October)

Event Time Altitude Azimuth Distance (km) Brightness Sun altitude
Rises 06:23:05 0° 279° (W) 2,883 - -3.2°
Exits shadow 06:23:49 - 279° (W) 2,590 ? -3.1°
Reaches altitude 10° 06:25:23 10° 278° (W) 1,980 ? -2.8°
Maximum altitude 06:29:57 78° 192° (SSW) 635 ? -2.1°
Drops below altitude 10° 06:34:30 10° 107° (ESE) 1,977 ? -1.3°
Sets 06:36:48 0° 107° (ESE) 2,878 ? -0.9°
